User: anonymous
Location: Chenango Forks
(42.2242°N, 75.8278°W)
Time: 07:42:32
(UTC-04:00)
Language:

Coronas F rocket - Orbit

View from above orbital plane
View from above orbital plane
View from above satellite
View from above satellite

Ground track
Ground track

The orbit data is extracted from the following two-line orbital elements,

1 26874U 01032B   14113.52114973  .00017420  00000-0  29542-3 0  6597
2 26874 082.4754 040.5382 0013507 250.3346 109.6449 15.51258311712825
Epoch (UTC): 23 April 2014 12:30:27
Eccentricity: 0.0013507
inclination: 82.4754°
perigee height: 404 km
apogee height: 422 km
right ascension of ascending node: 40.5382°
argument of perigee: 250.3346°
revolutions per day: 15.51258311
mean anomaly at epoch: 109.6449°
orbit number at epoch: 71282

The dashed part of the orbit path shows where the satellite is in the earth's shadow,  

DLR